Flag for Luxembourg

Past Weather in Esch-sur-Alzette, Luxembourg — Yesterday and Last 2 Weeks

Now
52 °F

Scattered showers. Passing clouds.


Feels Like: 49 °F
Forecast: 59 / 49 °F
Wind: 7 mph from West

Location: Luxembourg Airport
Current Time: Oct 1, 2020 at 8:46:25 pm
Latest Report: Oct 1, 2020 at 7:50 pm
Visibility: N/A
Pressure29.59 "Hg
Humidity: 88%
Dew Point: 48 °F
Location of Esch-sur-AlzetteLocation

Past Weather in Esch-sur-Alzette — Graph

°F

Esch-sur-Alzette Temperature Yesterday

Maximum temperature yesterday: 63 °F (at 4:20 pm)
Minimum temperature yesterday: 54 °F (at 11:50 pm)
Average temperature yesterday: 57 °F

High & Low Weather Summary for the Past Weeks

 TemperatureHumidityPressure
High81 °F (Sep 19, 4:20 pm)100% (Sep 26, 11:50 pm)30.27 "Hg (Sep 26, 11:50 pm)
Low45 °F (Sep 25, 6:50 am)22% (Sep 20, 4:20 pm)29.39 "Hg (Sep 27, 5:50 am)
Average58 °F72%29.86 "Hg
* Reported Sep 16 7:20 pm — Oct 1 7:20 pm, Esch-sur-Alzette. Weather by CustomWeather, © 2020

Note: Actual official high and low records may vary slightly from our data, if they occured in-between our weather recording intervals... More about our weather records

Esch-sur-Alzette Weather History for the Previous 24 Hours

Scroll right to see more
 ConditionsComfort  
Time TempWeatherWind HumidityBarometerVisibility
7:20 pm
Thu, Oct 1
52 °FPassing clouds.9 mph82%29.59 "HgN/A
6:50 pm54 °FSprinkles. Partly sunny.12 mph88%29.59 "HgN/A
6:20 pm55 °FScattered showers. Partly sunny.7 mph88%29.59 "HgN/A
5:50 pm55 °FScattered clouds.10 mph88%29.59 "HgN/A
5:20 pm57 °FScattered clouds.12 mph82%29.59 "HgN/A
4:50 pm57 °FPartly sunny.13 mph88%29.59 "HgN/A
4:20 pm55 °FBroken clouds.13 mph94%29.59 "HgN/A
3:50 pm55 °FSprinkles. Broken clouds.9 mph94%29.59 "HgN/A
3:20 pm55 °FLight rain. Broken clouds.13 mph94%29.59 "HgN/A
2:50 pm55 °FLight rain. Broken clouds.12 mph94%29.59 "HgN/A
2:20 pm55 °FLight rain. Broken clouds.13 mph94%29.59 "Hg4 mi
1:50 pm54 °FBroken clouds.13 mph100%29.59 "Hg5 mi
1:20 pm54 °FLight rain. Broken clouds.10 mph94%29.59 "Hg3 mi
12:50 pm54 °FRain. Broken clouds.9 mph94%29.62 "Hg3 mi
12:20 pm54 °FLight rain. Broken clouds.10 mph94%29.62 "Hg3 mi
11:50 am54 °FPartly sunny.10 mph94%29.62 "HgN/A
11:20 am54 °FPartly sunny.10 mph94%29.62 "HgN/A
10:50 am54 °FPartly sunny.8 mph88%29.62 "Hg4 mi
10:20 am52 °FPartly sunny.9 mph94%29.65 "Hg5 mi
9:50 am52 °FBroken clouds.7 mph94%29.65 "Hg4 mi
9:20 am52 °FFog.7 mph94%29.65 "Hg2 mi
8:50 am50 °FFog.7 mph100%29.65 "Hg2 mi
8:20 am50 °FFog.5 mph100%29.65 "Hg2 mi
7:50 am50 °FFog.7 mph100%29.65 "Hg1 mi
7:20 am50 °FFog.6 mph100%29.68 "Hg1 mi
6:50 am50 °FFog.5 mph100%29.68 "Hg2 mi
6:20 am50 °FFog.6 mph100%29.68 "Hg2 mi
5:50 am52 °FFog.6 mph94%29.71 "Hg2 mi
5:20 am52 °FFog.3 mph94%29.71 "Hg3 mi
4:50 am52 °FFog.5 mph94%29.71 "Hg3 mi
4:20 am52 °FFog.6 mph94%29.74 "Hg3 mi
3:50 am52 °FClear.7 mph94%29.74 "HgN/A
3:20 am52 °FPartly cloudy.8 mph94%29.77 "HgN/A
2:50 am52 °FCool.6 mph94%29.77 "Hg4 mi
2:20 am52 °FCool.2 mph100%29.80 "Hg4 mi
1:50 am52 °FClear.3 mph100%29.80 "Hg4 mi
1:20 am52 °FCool.7 mph100%29.80 "Hg5 mi
12:50 am54 °FClear.8 mph94%29.83 "Hg5 mi
12:20 am54 °FClear.7 mph94%29.83 "Hg5 mi
11:50 pm
Wed, Sep 30
54 °FOvercast.7 mph100%29.86 "Hg6 mi
11:20 pm55 °FClear.6 mph94%29.86 "Hg6 mi
10:50 pm55 °FClear.5 mph94%29.86 "Hg5 mi
10:20 pm55 °FPassing clouds.5 mph94%29.86 "Hg4 mi
9:50 pm55 °FClear.5 mph94%29.86 "Hg5 mi
9:20 pm55 °FPassing clouds.6 mph94%29.86 "Hg6 mi
8:50 pm57 °FPassing clouds.6 mph88%29.89 "HgN/A
8:20 pm57 °FPassing clouds.3 mph94%29.89 "HgN/A
Weather by CustomWeather, © 2020

See weather overview